星链-32549 (STARLINK-32549)

导读

STARLINK-32549是美国SpaceX公司星链(Starlink)星座的成员卫星,于2024年11月27日发射。星链星座旨在全球范围提供低延迟宽带互联网服务,尤其覆盖偏远地区。该卫星运行于近地轨道,采用平板设计与氪霍尔推进器,具备自主避撞能力,寿命结束后会主动离轨,在大气层焚毁。

基本信息
目录编号:
62118
目录名称:
STARLINK-32549
国际标识:
2024-222E
轨道中心:
EARTH
卫星名称:
星链-32549
卫星全名:
星链-32549 (STARLINK-32549)
卫星状态:
在轨 (已飞行567 天)
发射日期:
2024-11-27 UTC
国别 :
美国 (US)
星等 :
--
轨道信息
数据来源 国际轨道数据
星历时间: 2026-06-17T09:55:09+0800
19小时前
查看轨道信息
半长轴: 6861.15km
偏心率: 0.0000021
轨道倾角: 43.005°
近地点辐角 342.131°
升交点赤经 294.521°
平近点角 17.954°
近地点: 482.998km
远地点: 483.028km
周期: 94.266分钟
每日圈数: 15.275921
详细信息
固有亮度:
5
最大亮度:
2.5
卫星平台:
Starlink V1.0
覆盖范围:
全球
运营商:
太空探索技术公司
运营商所在国:
美国
制造商(研发单位):
太空探索技术公司
制造商所在国:
美国
使用方式:
暂无
卫星简介
Starlink 计划是 SpaceX 推出的全球卫星互联网项目,通过发射低轨道卫星,为全球尤其是偏远地区提供高速、低延迟的互联网服务。自 2019 年起,Starlink 已部署数千颗卫星,旨在缩小全球数字鸿沟,推动互联网普及。该项目还为军事、航空等行业提供通信支持,带来广泛经济效益。
2D轨道图
3D轨道图
轨道高度分析图
轨道倾角分析图
轨道综合分析图
查看轨道综合分析图